GW0787 Weather Reports


Display with metric or nautical units.
time (UTC)temp
F
wind
direction
speed
MPH
gust
MPH
rain 1hr
in
rain 24hr
in
rain mn
in
humidity
%
barometer
mb
20260506154518 62 77 6.0 14.0 0.00 0.00 0.00 61 1014.0
20260506153013 58 90 2.0 5.0 0.00 0.00 0.00 72 1014.1
20260506151508 55 127 1.0 8.0 0.00 0.00 0.00 82 1014.2
20260506150006 51 183 0.0 3.0 0.00 0.00 0.00 90 1014.4
20260506144511 48 183 0.0 3.0 0.00 0.00 0.00 91 1014.6
20260506143004 46 120 1.0 4.0 0.00 0.00 0.00 90 1014.7
20260506141509 44 160 1.0 3.0 0.00 0.00 0.00 91 1014.4
20260506140002 44 174 1.0 3.0 0.00 0.00 0.00 91 1014.3
20260506134601 44 226 1.0 5.0 0.00 0.00 0.00 91 1014.5
20260506133115 44 159 0.0 2.0 0.00 0.00 0.00 91 1014.5
20260506131615 44 156 0.0 2.0 0.00 0.00 0.00 91 1014.5
20260506130057 44 156 0.0 2.0 0.00 0.00 0.00 90 1014.5
20260506124557 44 156 0.0 2.0 0.00 0.00 0.00 90 1014.3
20260506123054 44 156 0.0 0.0 0.00 0.00 0.00 90 1014.3
20260506121555 45 157 0.0 1.0 0.00 0.00 0.00 90 1014.2
20260506120059 45 157 0.0 0.0 0.00 0.00 0.00 90 1014.1
20260506114547 45 156 0.0 0.0 0.00 0.00 0.00 89 1014.2
20260506113045 45 156 0.0 2.0 0.00 0.00 0.00 90 1014.0
20260506111546 46 156 0.0 0.0 0.00 0.00 0.00 89 1014.0
20260506110052 46 156 0.0 0.0 0.00 0.00 0.00 89 1014.0
20260506104550 46 155 0.0 2.0 0.00 0.00 0.00 89 1013.7
20260506103044 46 155 0.0 3.0 0.00 0.00 0.00 88 1013.6
20260506101536 47 153 0.0 2.0 0.00 0.00 0.00 88 1013.6
20260506100033 47 150 0.0 2.0 0.00 0.00 0.00 88 1013.6
20260506094531 47 149 0.0 4.0 0.00 0.00 0.00 87 1013.4
20260506093028 48 174 0.0 1.0 0.00 0.00 0.00 86 1013.5
20260506091525 48 172 0.0 1.0 0.00 0.00 0.00 86 1013.4
20260506090023 49 173 0.0 0.0 0.00 0.00 0.00 85 1013.4
20260506084543 49 170 0.0 1.0 0.00 0.00 0.00 84 1013.4
20260506083019 49 171 0.0 1.0 0.00 0.00 0.00 84 1013.3
20260506081518 50 171 0.0 2.0 0.00 0.00 0.00 84 1013.3
20260506073009 51 209 0.0 2.0 0.00 0.00 0.00 81 1013.0
20260506071506 52 209 0.0 1.0 0.00 0.00 0.00 81 1012.8
20260506061503 54 247 0.0 2.0 0.00 0.00 0.00 77 1012.3
20260506050103 59 247 0.0 3.0 0.00 0.00 0.00 70 1011.9
20260506044559 60 314 0.0 0.0 0.00 0.00 0.00 68 1011.8
20260506043058 61 315 0.0 2.0 0.00 0.00 0.00 66 1011.6
20260506041607 62 309 0.0 3.0 0.00 0.00 0.00 63 1011.4
20260506040059 64 177 0.0 0.0 0.00 0.00 0.00 58 1011.1
20260506034558 67 178 1.0 3.0 0.00 0.00 0.00 52 1010.9
20260506033100 68 214 1.0 4.0 0.00 0.00 0.00 50 1010.7
20260506031556 70 132 1.0 4.0 0.00 0.00 0.00 45 1010.5
20260506030055 71 212 3.0 11.0 0.00 0.00 0.00 43 1010.4
20260506024556 71 222 0.0 5.0 0.00 0.00 0.00 45 1010.2
20260506023107 73 219 2.0 6.0 0.00 0.00 0.00 42 1010.1
20260506021612 74 211 2.0 8.0 0.00 0.00 0.00 37 1010.0
20260506020054 76 212 2.0 4.0 0.00 0.00 0.00 36 1009.9
20260506014553 77 255 1.0 6.0 0.00 0.00 0.00 36 1009.8
20260506013107 78 226 1.0 9.0 0.00 0.00 0.00 29 1009.9
20260506011612 78 21 1.0 10.0 0.00 0.00 0.00 28 1009.7
20260506010056 79 125 0.0 9.0 0.00 0.00 0.00 29 1009.6
20260506004547 81 127 3.0 7.0 0.00 0.00 0.00 27 1009.6
20260506003045 83 214 2.0 7.0 0.00 0.00 0.00 26 1009.6
20260506001547 82 161 2.0 5.0 0.00 0.00 0.00 28 1009.6
20260506000045 81 37 2.0 7.0 0.00 0.00 0.00 27 1009.6
20260505234541 80 85 2.0 10.0 0.00 0.00 0.00 27 1009.7
20260505233039 80 25 4.0 11.0 0.00 0.00 0.00 26 1009.8
20260505231549 82 218 5.0 10.0 0.00 0.00 0.00 26 1009.9
20260505230036 82 187 0.0 7.0 0.00 0.00 0.00 26 1009.8
20260505224536 81 326 4.0 12.0 0.00 0.00 0.00 25 1010.0
20260505223035 84 162 4.0 10.0 0.00 0.00 0.00 26 1009.9
20260505221535 84 251 4.0 9.0 0.00 0.00 0.00 24 1010.0
20260505220033 83 207 5.0 14.0 0.00 0.00 0.00 25 1009.9
20260505214540 82 193 5.0 12.0 0.00 0.00 0.00 26 1009.9
20260505213036 81 211 2.0 16.0 0.00 0.00 0.00 26 1010.1
20260505211527 80 63 1.0 10.0 0.00 0.00 0.00 27 1010.2
20260505210025 80 212 2.0 13.0 0.00 0.00 0.00 29 1010.3
20260505204526 81 218 3.0 13.0 0.00 0.00 0.00 27 1010.2
20260505203030 80 316 3.0 10.0 0.00 0.00 0.00 29 1010.3
20260505201531 80 78 3.0 10.0 0.00 0.00 0.00 30 1010.5
20260505200022 80 156 4.0 8.0 0.00 0.00 0.00 31 1010.4
20260505194517 77 102 0.0 5.0 0.00 0.00 0.00 32 1010.8
20260505193020 76 68 3.0 8.0 0.00 0.00 0.00 35 1010.9
20260505191517 76 14 3.0 5.0 0.00 0.00 0.00 34 1011.0
20260505190013 77 239 2.0 7.0 0.00 0.00 0.00 35 1011.1
20260505184510 75 183 3.0 7.0 0.00 0.00 0.00 40 1011.3
20260505183013 74 84 1.0 4.0 0.00 0.00 0.00 41 1011.5
20260505181504 73 120 0.0 5.0 0.00 0.00 0.00 42 1011.6
20260505180001 72 165 1.0 5.0 0.00 0.00 0.00 43 1011.7
20260505174605 70 193 1.0 3.0 0.00 0.00 0.00 45 1011.8
20260505173058 69 189 1.0 4.0 0.00 0.00 0.00 48 1012.0
20260505171552 68 162 0.0 2.0 0.00 0.00 0.00 48 1012.1
20260505170104 66 163 0.0 2.0 0.00 0.00 0.00 51 1012.2
20260505164547 64 165 0.0 0.0 0.00 0.00 0.00 60 1012.3
20260505163039 62 165 0.0 0.0 0.00 0.00 0.00 63 1012.4
20260505161534 60 165 0.0 0.0 0.00 0.00 0.00 68 1012.5